Regional Weather Roundup
Issued by NWS

Home | Current Version | Previous Version | Graphics & Text | Print | Product List | Glossary Off
Versions: 1 2 3 4 5 6 7 8 9 10 11 12 13 14 15 16 17 18 19 20 21 22 23 24 25 26 27 28 29 30 31 32 33 34 35 36 37 38 39 40 41 42 43 44 45 46 47 48 49 50

000
ASUS43 KMPX 200010
RWRMN
WEATHER ROUNDUP FOR MINNESOTA
NATIONAL WEATHER SERVICE TWIN CITIES/CHANHASSEN MN
700 PM CDT SAT AUG 19 2017


NOTE: "FAIR" INDICATES FEW OR NO CLOUDS BELOW 12,000 FEET WITH NO
SIGNIFICANT WEATHER AND/OR OBSTRUCTIONS TO VISIBILITY. N/A MEANS
CURRENT SKY AND/OR WEATHER CONDITIONS ARE NOT AVAILABLE.

MNZ060>063-068>070-200100-
   Twin Cities Metro

CITY           SKY/WX    TMP DP  RH WIND       PRES   REMARKS
TWIN CITIES    MOSUNNY   79  61  53 S8        29.88F
6HR MIN TEMP:  75; 6HR MAX TEMP:  80;

ST PAUL        SUNNY     77  64  64 S8        29.88F
CRYSTAL        SUNNY     77  59  53 S7        29.87S
BLAINE         MOSUNNY   81  61  50 SW7       29.88S
LAKEVILLE      SUNNY     75  64  69 CALM      29.89F
EDEN PRAIRIE   MOSUNNY   77  64  64 S8        29.88S
6HR MIN TEMP:  76; 6HR MAX TEMP:  80;

SOUTH ST PAUL  SUNNY     78  61  56 S8        29.89S
LAKE ELMO      FAIR      77  64  65 S7        29.90S
$$
MNZ001>005-007-008-013>017-022>024-027-028-200100-
   Northwest Minnesota

CITY           SKY/WX    TMP DP  RH WIND       PRES   REMARKS
BEMIDJI        SUNNY     77  57  50 S9        29.81F
HALLOCK        SUNNY     82  57  42 S16       29.69S
ROSEAU         SUNNY     82  61  47 S13       29.73S
WARROAD        SUNNY     81  64  57 S5        29.74S
THIEF RVR FALL SUNNY     78  60  53 S14G22    29.76F
CROOKSTON      SUNNY     81  61  50 S18       29.74F
FOSSTON        SUNNY     77  57  50 S10       29.79F
DETROIT LAKES  SUNNY     73  61  64 S9        29.83S
MOORHEAD       SUNNY     75  61  60 S12       29.77F
PARK RAPIDS    SUNNY     76  58  53 S7        29.83F
MAHNOMEN       FAIR      76  60  59 S10       29.79F
$$
MNZ006-009>011-018-025>026-200100-
   North Central Minnesota

CITY           SKY/WX    TMP DP  RH WIND       PRES   REMARKS
BAUDETTE       SUNNY     78  59  51 S8        29.76F
FLAG ISLAND    SUNNY     75  66  73 S6        29.72F
INTL FALLS     SUNNY     77  57  50 SW6       29.79S
6HR MIN TEMP:  77; 6HR MAX TEMP:  81;

WASKISH        CLOUDY    79  59  50 CALM      29.79F
BIG FORK       MOSUNNY   75  59  57 S6        29.83S
LONGVILLE      SUNNY     75  61  60 S6        29.84F
GRAND RAPIDS   SUNNY     74  61  63 S5        29.87S
CRANE LAKE     MOSUNNY   75  57  53 S3        29.83S
ORR            SUNNY     75  55  50 S5        29.80F
COOK           SUNNY     75  57  53 SW5       29.84S
WALKER         FAIR      75  60  59 S6        29.83F
$$
MNZ012-019>021-037-200100-
   Northeast Minnesota

CITY           SKY/WX    TMP DP  RH WIND       PRES   REMARKS
DULUTH         MOSUNNY   75  60  59 SW9       29.86S
6HR MIN TEMP:  75; 6HR MAX TEMP:  80;

ELY            MOSUNNY   75  55  50 SW5       29.84S
HIBBING        SUNNY     74  57  55 SW6       29.85S
EVELETH        SUNNY     75  48  38 SW5       29.86S
DULUTH HARBOR  SUNNY     79  64  61 SW9       29.84S
TWO HARBORS    SUNNY     79  66  65 SW6       29.83S
SILVER BAY     SUNNY     77  63  61 SW5       29.82S
GRAND MARAIS     N/A     67  62  84 W6        29.81S
G MARAIS ARPRT SUNNY     70  55  60 CALM      29.87S
$$
MNZ029>031-032-039>041-046>048-054>057-064-200100-
   West Central Minnesota

CITY           SKY/WX    TMP DP  RH WIND       PRES   REMARKS
FERGUS FALLS   SUNNY     75  63  64 S9        29.80S
WHEATON        SUNNY     73  63  68 SE8       29.81S
MORRIS         SUNNY     75  64  69 S10       29.82F
ALEXANDRIA     SUNNY     75  62  64 S7        29.86F
ELBOW LAKE     FAIR      73  64  72 SE10      29.82F HAZE
WADENA         SUNNY     73  61  64 S7        29.84F
GLENWOOD       SUNNY     75  63  64 S9        29.87S
APPLETON       SUNNY     77  63  61 SE6       29.82F
BENSON         SUNNY     77  63  61 S6        29.85F
ORTONVILLE     SUNNY     77  64  65 MISG      29.81F
MADISON        SUNNY     79  66  65 SE7       29.82F
WILLMAR        FAIR      75  66  73 SE6       29.87F
$$
MNZ033>034-036-042>043-049>051-058-059-200100-
   Central Minnesota

CITY           SKY/WX    TMP DP  RH WIND       PRES   REMARKS
ST CLOUD       SUNNY     75  61  61 S8        29.87F
6HR MIN TEMP:  75; 6HR MAX TEMP:  79;

SAUK CENTRE    FAIR      74  62  65 S7        29.86F
PAYNESVILLE    SUNNY     75  63  66 S5        29.88S
AITKIN         MOSUNNY   73  61  64 S5        29.85F
PINE RIVER     SUNNY     72  59  64 S5        29.88F
BRAINERD       SUNNY     75  59  57 S9        29.86F
STAPLES        SUNNY     75  59  57 S6        29.85F
LONG PRAIRIE   FAIR      72  61  68 SE8       29.87F
LITTLE FALLS   SUNNY     75  57  53 S8        29.87S
LITCHFIELD     SUNNY     77  66  69 CALM      29.88F
BUFFALO        SUNNY     76  61  58 S6        29.89S
MAPLE LAKE     SUNNY     76  65  68 CALM      29.89S
HUTCHINSON     SUNNY     76  67  73 S5        29.89F
$$
MNZ037-044-045-052-053-200100-
   East Central Minnesota

CITY           SKY/WX    TMP DP  RH WIND       PRES   REMARKS
PRINCETON      SUNNY     77  61  57 S5        29.88S
MORA           SUNNY     73  57  56 S5        29.89F
CAMBRIDGE      SUNNY     79  61  53 S3        29.88S
RUSH CITY      SUNNY     76  59  55 S3        29.88F
MOOSE LAKE     SUNNY     75  61  60 SW5       29.85F
HINCKLEY       FAIR      75  61  60 S6        29.88S
CLOQUET        SUNNY     75  57  53 SW3       29.86F
MCGREGOR       SUNNY     75  59  57 S6        29.87S
$$
MNZ071>073-080-081-089-090-097-098-200100-
   Southwest Minnesota

CITY           SKY/WX    TMP DP  RH WIND       PRES   REMARKS
MONTEVIDEO     SUNNY     77  64  65 S7        29.84F
GRANITE FALLS  SUNNY     78  66  68 SE8       29.86F
CANBY          SUNNY     78  65  65 CALM      29.84F
MARSHALL       SUNNY     77  65  66 S9        29.85
REDWOOD FALLS  SUNNY     77  65  66 S9        29.85F
OLIVIA         SUNNY     73  64  73 SE5       29.86F
PIPESTONE      MOSUNNY   75  64  69 S8        29.86F
WINDOM         SUNNY     77  63  61 S8        29.88F
WORTHINGTON    PTSUNNY   76  65  68 SE7       29.89F
JACKSON        SUNNY     75  64  69 CALM      29.90F
TRACY          SUNNY     77  66  69 S6        29.86F
SLAYTON        SUNNY     76  60  58 SE8       29.89F
$$
MNZ065>067-074>077-082>085-091>093-200100-
   South Central Minnesota

CITY           SKY/WX    TMP DP  RH WIND       PRES   REMARKS
MANKATO        SUNNY     76  65  68 S6        29.89F
NEW ULM        SUNNY     75  64  69 SE6       29.87F
ST JAMES       SUNNY     75  66  73 SE8       29.89F
FAIRMONT       SUNNY     76  66  71 S7        29.89F
GLENCOE        SUNNY     76  68  75 CALM      29.88F
FARIBAULT      SUNNY     75  64  69 CALM      29.90F
OWATONNA       SUNNY     75  66  73 S6        29.91F
WASECA         SUNNY     73  63  68 S3        29.91F
ALBERT LEA     SUNNY     79  64  61 S5        29.91F
$$
MNZ078>079-086>088-094>096-200100-
   Southeast Minnesota

CITY           SKY/WX    TMP DP  RH WIND       PRES   REMARKS
ROCHESTER      SUNNY     73  64  73 SW7       29.93F
6HR MIN TEMP:  72; 6HR MAX TEMP:  77;

RED WING       SUNNY     79  59  50 S5        29.88F
DODGE CENTER   SUNNY     73  63  68 S6        29.92F
WINONA         SUNNY     77  61  57 SW3       29.91F
AUSTIN         SUNNY     75  63  64 S3        29.92F
PRESTON        SUNNY     74  60  60 S6        29.94S
$$
ABBREVIATIONS USED IN REMARKS
   TC - TEMPERATURES IN CELSIUS
  WCI - WIND CHILL INDEX
   HX - HEAT INDEX
  VSB - VISIBILITY
$$




USA.gov is the U.S. government's official web portal to all federal, state and local government web resources and services.